Location: Unspecified
(0.0000°N, 0.0000°E)
Time: 15:39:40
(UTC+00:00)

deb Delta 126 - Pass Details

Date: 16 February 2026
Orbit: 1458 x 1580 km, 101.9° (Epoch: 6 March)

Event Time Altitude Azimuth Distance (km) Brightness Sun altitude
Rises 03:16:31 0° 21° (NNE) 4,746 ? -43.1°
Reaches altitude 10° 03:19:23 10° 23° (NNE) 3,769 ? -42.4°
Enters shadow 03:24:57 43° 36° (NE) 2,086 ? -41.1°
Exits shadow 03:27:43 70° 81° (E) 1,660 ? -40.4°
Maximum altitude 03:28:16 72° 106° (ESE) 1,645 ? -40.3°
Drops below altitude 10° 03:37:08 10° 189° (S) 3,761 ? -38.2°
Sets 03:39:59 0° 191° (S) 4,736 ? -37.5°
